Flag for Mongolia Weather past 2 weeks in Ulaanbaatar, Mongolia

Now
52 °F

Passing clouds.


Feels Like: 51 °F
Forecast: 49 / 75 °F
Wind: 3 mph from Southeast

Location: Ulan-Bator

Current Time: Jul 12, 2014 at 3:52:41 AM

Latest Report: Jul 12, 2014 at 3:00 AM


Visibility: N/A

Pressure: 30.07 "Hg

Humidity: 82%

Dew point: 46 °F

Location of UlaanbaatarLocation

Historic Weather in Ulaanbaatar — Graph

°F

Ulaanbaatar temperature yesterday

Maximum temperature yesterday: 72 °F (at 2:00 PM)
Minimum temperature yesterday: 48 °F (at 4:30 AM)
Average temperature yesterday: 60 °F

Past Weeks' High & Low Weather Summary

 TemperatureHumidityPressure
High82 °F (Jul 1, 2:00 PM)100% (Jun 30, 5:30 AM)30.07 "Hg (Jun 30, 5:30 AM)
Low43 °F (Jul 4, 5:30 AM)21% (Jul 1, 12:30 PM)29.65 "Hg (Jul 1, 6:30 PM)
Average61 °F66%29.87 "Hg
* Reported Jun 27 2:00 AM — Jul 12 2:30 AM, Ulaanbaatar, Weather by CustomWeather, © 2014

Note: Actual official high and low records may vary slightly from our data, if they occured in-between our weather recording intervals... More about our weather records

Advertising

Ulaanbaatar weather history for previous 24 hours

 ConditionsComfort  
Time TempWeatherWind HumidityBarometerVisibility
2:30 AM
Jul 12
50 °FPassing clouds.No wind88%30.07 "HgN/A
2:00 AM55 °FPassing clouds.1 mph72%30.07 "HgN/A
1:30 AM55 °FPassing clouds.1 mph72%30.07 "HgN/A
1:00 AM57 °FPassing clouds.6 mph63%30.07 "HgN/A
12:30 AM59 °FPassing clouds.8 mph63%30.07 "HgN/A
12:00 AM59 °FPassing clouds.13 mph68%30.07 "HgN/A
11:30 PM
Jul 11
57 °FPassing clouds.No wind72%30.07 "HgN/A
11:00 PM57 °FPassing clouds.1 mph72%30.07 "HgN/A
10:30 PM61 °FPassing clouds.6 mph59%30.07 "HgN/A
10:00 PM59 °FPassing clouds.3 mph63%30.07 "HgN/A
9:30 PM55 °FScattered clouds.1 mph77%30.07 "HgN/A
9:00 PM63 °FScattered clouds.1 mph56%30.04 "HgN/A
8:30 PM63 °FScattered clouds.3 mph56%30.04 "HgN/A
8:00 PM64 °FScattered clouds.3 mph52%30.04 "HgN/A
7:30 PM64 °FPartly sunny.8 mph56%30.01 "HgN/A
7:00 PM64 °FPartly sunny.8 mph52%30.01 "HgN/A
6:30 PM66 °FScattered clouds.10 mph49%30.01 "HgN/A
6:00 PM68 °FScattered clouds.6 mph43%30.01 "HgN/A
5:30 PM68 °FScattered clouds.10 mph43%30.01 "HgN/A
5:00 PM68 °FScattered clouds.10 mph53%30.01 "HgN/A
4:30 PM68 °FScattered clouds.8 mph56%30.01 "HgN/A
4:00 PM68 °FThunderstorms. Scattered clouds.3 mph60%30.01 "HgN/A
3:30 PM68 °FThunderstorms. Scattered clouds.8 mph56%30.01 "HgN/A
3:00 PM70 °FScattered clouds.8 mph57%30.01 "HgN/A
2:30 PM70 °FScattered clouds.10 mph50%30.01 "HgN/A
2:00 PM72 °FScattered clouds.3 mph53%30.01 "HgN/A
1:30 PM70 °FThunderstorms. Scattered clouds.3 mph53%30.01 "HgN/A
1:00 PM66 °FSprinkles. Scattered clouds.8 mph60%30.04 "HgN/A
12:30 PM66 °FHail. Scattered clouds.13 mph68%30.04 "HgN/A
12:00 PM70 °FScattered clouds.3 mph46%30.04 "HgN/A
11:30 AM68 °FPassing clouds.3 mph49%30.04 "HgN/A
11:00 AM68 °FPassing clouds.1 mph49%30.04 "HgN/A
10:30 AM66 °FPassing clouds.1 mph56%30.04 "HgN/A
10:00 AM63 °FPartly sunny.1 mph68%30.04 "HgN/A
9:30 AM63 °FPartly sunny.1 mph64%30.04 "HgN/A
9:00 AM63 °FPartly sunny.No wind64%30.04 "HgN/A
8:30 AM59 °FScattered clouds.1 mph68%30.04 "HgN/A
8:00 AM57 °FScattered clouds.1 mph72%30.04 "HgN/A
7:30 AM57 °FScattered clouds.No wind72%30.04 "HgN/A
7:00 AM54 °FScattered clouds.No wind82%30.04 "HgN/A
6:30 AM52 °FScattered clouds.3 mph88%30.04 "HgN/A
6:00 AM52 °FPassing clouds.No wind82%30.01 "HgN/A
5:30 AM48 °FPassing clouds.No wind94%30.01 "HgN/A
5:00 AM50 °FPassing clouds.3 mph88%30.01 "HgN/A
4:30 AM48 °FPassing clouds.3 mph94%30.01 "HgN/A
4:00 AM52 °FPassing clouds.1 mph88%30.01 "HgN/A
3:30 AM52 °FPassing clouds.1 mph88%30.01 "HgN/A
3:00 AM55 °FPassing clouds.3 mph77%30.01 "HgN/A
Weather by CustomWeather, © 2014

See weather overviewHow to use our weather pages